Regional Weather Roundup
Issued by NWS

Home | Current Version | Previous Version | Text Only | Print | Product List | Glossary Off
Versions: 1 2 3 4 5 6 7 8 9 10 11 12 13 14 15 16 17 18 19 20 21 22 23 24 25 26 27 28 29 30 31 32 33 34 35 36 37 38 39 40 41 42 43 44 45 46 47 48 49 50

000
ASUS43 KOAX 200610
RWRNE

WEATHER ROUNDUP FOR NEBRASKA
NATIONAL WEATHER SERVICE OMAHA NE
100 AM CDT MON OCT 20 2014

NOTES: SATELLITE DATA IS BEING USED TO AUGMENT CLOUD COVER ABOVE
       12000 FEET.
       "FAIR" INDICATES FEW OR NO CLOUDS BELOW 12,000 FEET WITH NO
       SIGNIFICANT WEATHER AND/OR OBSTRUCTIONS TO VISIBILITY.

  * THESE STATIONS DO NOT REPORT WEATHER SUCH AS RAIN...SNOW OR FOG.

NEZ001>004-019>022-054>056-200700-
NEBRASKA PANHANDLE

CITY           SKY/WX    TMP DP  RH WIND       PRES   REMARKS
SCOTTSBLUFF    CLEAR     47  36  65 E5        30.12S
6HR MIN TEMP:  46; 6HR MAX TEMP:  69;

ALLIANCE       FAIR      36  32  85 W3        30.12R
6HR MIN TEMP:  36; 6HR MAX TEMP:  62;

CHADRON        CLEAR     41  38  89 SW6       30.10S
6HR MIN TEMP:  41; 6HR MAX TEMP:  64;

KIMBALL        CLEAR     43  35  73 SW3       30.15R
SIDNEY         CLEAR     40  34  79 NW5       30.14S
6HR MIN TEMP:  39; 6HR MAX TEMP:  65;

$$

NEZ057>060-069>072-079>082-200700-
SOUTHWEST NEBRASKA

CITY           SKY/WX    TMP DP  RH WIND       PRES   REMARKS
NORTH PLATTE   CLEAR     42  37  82 CALM      30.08R
6HR MIN TEMP:  40; 6HR MAX TEMP:  65;

IMPERIAL       CLEAR     47  38  71 NW3       30.10R
6HR MIN TEMP:  46; 6HR MAX TEMP:  66;

LEXINGTON      CLEAR     42  40  90 W6        30.06R
MCCOOK         CLEAR     44  41  89 W3        30.07S
6HR MIN TEMP:  43; 6HR MAX TEMP:  66;

OGALLALA       CLEAR     42  36  81 CALM      30.10R
$$

NEZ005>010-023>029-035>040-094-200700-
NORTH CENTRAL NEBRASKA

CITY           SKY/WX    TMP DP  RH WIND       PRES   REMARKS
VALENTINE      CLEAR     43  35  73 W6        30.08R
6HR MIN TEMP:  43; 6HR MAX TEMP:  68;

AINSWORTH      CLEAR     43  36  77 W3        30.07R
BROKEN BOW     CLEAR     43  37  79 CALM      30.06R
6HR MIN TEMP:  43; 6HR MAX TEMP:  60;

O`NEILL        CLEAR     49  40  70 NW6       30.04R
ORD            CLEAR     42  37  82 NW8       30.03R
6HR MIN TEMP:  39; 6HR MAX TEMP:  60;

THEDFORD       CLEAR     45  37  75 CALM      30.09R
$$

NEZ041-046>049-061>064-073>077-083>087-200700-
SOUTH CENTRAL NEBRASKA

CITY           SKY/WX    TMP DP  RH WIND       PRES   REMARKS
GRAND ISLAND   CLEAR     48  44  86 W6        30.03R
6HR MIN TEMP:  48; 6HR MAX TEMP:  64;

AURORA         CLEAR     47  43  85 NW5       30.02R
HASTINGS       CLEAR     50  44  80 W3        30.03R
6HR MIN TEMP:  50; 6HR MAX TEMP:  66;

HEBRON         CLEAR     47  45  91 CALM      30.02R
HOLDREGE       CLEAR     43  40  89 CALM      30.05R
KEARNEY *      CLEAR     46  43  87 W8        30.05R
YORK           CLEAR     46  45  93 W7        30.01R
$$

NEZ011>018-030>034-042>045-200700-
NORTHEAST NEBRASKA

CITY           SKY/WX    TMP DP  RH WIND       PRES   REMARKS
NORFOLK        CLEAR     50  41  71 W6        29.99R
6HR MIN TEMP:  49; 6HR MAX TEMP:  61;

ALBION         CLEAR     43  38  82 NW5       30.01S
BLAIR          CLEAR     55  47  75 W8        29.95S
COLUMBUS *     CLEAR     48  45  87 W6        30.00R
FREMONT        CLEAR     48  46  91 W6        29.97R
TEKAMAH        CLEAR     47  43  86 NE5       29.95R
6HR MIN TEMP:  47; 6HR MAX TEMP:  65;

WAYNE          CLEAR     45  40  82 CALM      29.99R
$$

NEZ050>053-065>068-078-088>093-200700-
SOUTHEAST NEBRASKA

CITY           SKY/WX    TMP DP  RH WIND       PRES   REMARKS
LINCOLN        CLEAR     52  46  80 S3        30.00S
6HR MIN TEMP:  51; 6HR MAX TEMP:  65;

OMAHA EPPLEY   CLEAR     55  47  74 SE5       29.96R
6HR MIN TEMP:  52; 6HR MAX TEMP:  68;

BEATRICE       CLEAR     50  46  86 CALM      30.00S
FALLS CITY     CLEAR     57  49  74 W7        29.98S
6HR MIN TEMP:  56; 6HR MAX TEMP:  67;

NEBRASKA CITY  CLEAR     55  46  71 W12       29.98R
PLATTSMOUTH    CLEAR     56  47  71 W8        29.96S
$$

NEZ044-045-051>053-067-200700-
OMAHA AREA

CITY           SKY/WX    TMP DP  RH WIND       PRES   REMARKS
OMAHA EPPLEY   CLEAR     55  47  74 SE5       29.96R
6HR MIN TEMP:  52; 6HR MAX TEMP:  68;

BLAIR          CLEAR     55  47  75 W8        29.95S
FREMONT        CLEAR     48  46  91 W6        29.97R
MILLARD        CLEAR     51  48  87 CALM      29.96S
OFFUTT AFB     CLEAR     46  46 100 W5        29.95S
PLATTSMOUTH    CLEAR     56  47  71 W8        29.96S
WAHOO          FAIR      55  47  75 CALM      29.96S
$$


USA.gov is the U.S. government's official web portal to all federal, state and local government web resources and services.